Tracking 31027 objects as of 19-Jul-2025
HD Live streaming from Space Station
objects crossing your sky now

IRIDIUM 33 DEB

Track IRIDIUM 33 DEB now!
10-day predictions


NORAD ID: 34350
Int'l Code: 1997-051ES
Perigee: 736.0 km
Apogee: 763.1 km
Inclination: 86.3 °
Period: 99.7 minutes
Semi major axis: 7120 km
RCS: 0.064 m2 (small)
Launch date: September 14, 1997
Source: United States (US)
Launch site: TYURATAM MISSILE AND SPACE COMPLEX (TTMTR)

Note: This is SATELLITE DEBRIS
Your satellite tracking list
KORSAT 7
Track 1 satellite(s)




NASA's NSSDC Master Catalog

Two Line Element Set (TLE):
1 34350U 97051ES  25199.59272060  .00000654  00000-0  18190-3 0  9991
2 34350  86.3245  66.6206 0019062 268.2354 121.1585 14.44886776861686
Source of the keplerian elements: AFSPC